Whiteman AFB, MO

6:55 PM CDT on May 23, 2018 (GMT -0500)
Whiteman Air Force Base

Weather History for KSZL - February, 2013

Change the Weather History Date:

Sunday, February 10, 2013

  Actual Average Record
Temperature  
Mean Temperature 48 °F -  
Max Temperature 57 °F 42 °F 73 °F (1999)
Min Temperature 37 °F 25 °F -10 °F (2011)
Degree Days  
Heating Degree Days 18    
Moisture  
Dew Point 41 °F    
Average Humidity 85    
Maximum Humidity 100    
Minimum Humidity 44    
Precipitation  
Precipitation 0.05 in - - ()
Sea Level Pressure  
Sea Level Pressure 29.65 in    
Wind  
Wind Speed 16 mph (SSW)    
Max Wind Speed 33 mph    
Max Gust Speed 43 mph    
Visibility 10 miles    
Events Rain    
Averages and records for this station are not official NWS values.
T = Trace of Precipitation, MM = Missing Value Source: NWS Daily Summary

Daily Weather History Graph

Daily Weather History Graph

Search for Another Location

Airport or City:

Astronomy

Feb. 10, 2013 Rise Set
Actual Time 7:10 AM CST 5:46 PM CST
Civil Twilight 6:43 AM CST 6:14 PM CST
Nautical Twilight 6:11 AM CST 6:45 PM CST
Astronomical Twilight 5:40 AM CST 7:16 PM CST
Moon 7:01 AM CST (2/10) 6:37 PM CST (2/10)
Length of Visible Light 11h 30m
Length of Day
10h 35m
New Moon, 0% of the Moon is Illuminated
Feb 10
New Moon
Feb 17
First Quarter
Feb 25
Full
Mar 4
Last Quarter
Mar 11
New

Hourly Weather History & Observations

Time (CST) Temp. Windchill Dew Point Humidity Pressure Visibility Wind Dir Wind Speed Gust Speed Precip Events Conditions
12:01 AM 39.2 °F 32.0 °F 39.2 °F 100% 29.85 in 7.0 mi SSE 11.5 mph 19.6 mph N/A   Overcast
12:13 AM 39.2 °F 32.0 °F 39.2 °F 100% 29.84 in 4.0 mi SSE 11.5 mph 19.6 mph N/A   Light Drizzle
12:24 AM 39.2 °F 31.6 °F 39.2 °F 100% 29.84 in 6.0 mi SSE 12.7 mph - N/A   Overcast
12:55 AM 39.0 °F 31.0 °F 39.0 °F 100% 29.82 in 10.0 mi SSE 13.8 mph 21.9 mph 0.00 in   Overcast
1:12 AM 39.2 °F 31.6 °F 39.2 °F 100% 29.81 in 10.0 mi SSE 12.7 mph - N/A   Overcast
1:29 AM 39.2 °F 31.6 °F 39.2 °F 100% 29.81 in 10.0 mi SSE 12.7 mph 23.0 mph N/A   Overcast
1:55 AM 40.1 °F 32.7 °F 40.1 °F 100% 29.80 in 10.0 mi South 12.7 mph - N/A   Overcast
2:55 AM 40.8 °F 35.6 °F 40.8 °F 100% 29.77 in 10.0 mi SSE 8.1 mph - N/A   Overcast
3:41 AM 41.0 °F 35.2 °F 41.0 °F 100% 29.70 in 10.0 mi SE 9.2 mph - N/A   Overcast
3:55 AM 41.2 °F 35.0 °F 41.2 °F 100% 29.69 in 10.0 mi SE 10.4 mph - N/A   Overcast
4:22 AM 41.0 °F 33.9 °F 41.0 °F 100% 29.66 in 10.0 mi SSE 12.7 mph - N/A   Light Drizzle
4:44 AM 42.8 °F 35.1 °F 42.8 °F 100% 29.65 in 10.0 mi SSE 16.1 mph 20.7 mph N/A   Overcast
4:55 AM 42.8 °F 35.4 °F 42.8 °F 100% 29.64 in 10.0 mi SSE 15.0 mph 21.9 mph 0.00 in   Overcast
5:27 AM 44.6 °F 38.1 °F 44.6 °F 100% 29.62 in 10.0 mi South 13.8 mph 24.2 mph N/A   Overcast
5:41 AM 44.6 °F 39.2 °F 44.6 °F 100% 29.61 in 10.0 mi South 10.4 mph - N/A   Overcast
5:55 AM 45.5 °F 39.6 °F 45.5 °F 100% 29.61 in 10.0 mi South 12.7 mph - 0.00 in   Overcast
6:03 AM 46.4 °F 39.8 °F 46.4 °F 100% 29.60 in 10.0 mi South 16.1 mph 24.2 mph N/A Rain Light Rain
6:55 AM 46.8 °F - 46.8 °F 100% 29.59 in 10.0 mi South 16.1 mph - 0.04 in Rain Light Rain
7:45 AM 48.2 °F - 48.2 °F 100% 29.58 in 10.0 mi South 17.3 mph 24.2 mph N/A   Overcast
7:55 AM 47.8 °F - 47.8 °F 100% 29.57 in 10.0 mi South 19.6 mph 25.3 mph 0.00 in   Overcast
8:24 AM 48.2 °F - 48.2 °F 100% 29.56 in 10.0 mi South 20.7 mph 25.3 mph N/A   Overcast
8:55 AM 49.1 °F - 49.1 °F 100% 29.55 in 10.0 mi South 18.4 mph - N/A   Overcast
9:02 AM 50.0 °F - 50.0 °F 100% 29.55 in 10.0 mi SSW 18.4 mph - N/A   Overcast
9:24 AM 50.0 °F - 50.0 °F 100% 29.54 in 10.0 mi South 20.7 mph 26.5 mph N/A   Overcast
9:33 AM 51.8 °F - 51.8 °F 100% 29.54 in 10.0 mi SSW 19.6 mph - N/A   Overcast
9:55 AM 51.8 °F - 51.8 °F 100% 29.54 in 10.0 mi SW 27.6 mph 34.5 mph N/A   Overcast
10:02 AM 51.8 °F - 51.8 °F 100% 29.54 in 10.0 mi SSW 25.3 mph 33.4 mph N/A   Mostly Cloudy
10:08 AM 53.6 °F - 53.6 °F 100% 29.54 in 10.0 mi SSW 23.0 mph 32.2 mph N/A   Overcast
10:23 AM 55.4 °F - 53.6 °F 94% 29.53 in 10.0 mi SSW 28.8 mph 38.0 mph N/A   Mostly Cloudy
10:55 AM 55.4 °F - 48.0 °F 76% 29.53 in 10.0 mi SW 27.6 mph 36.8 mph N/A   Mostly Cloudy
11:55 AM 55.6 °F - 40.6 °F 57% 29.50 in 10.0 mi SW 27.6 mph 40.3 mph 0.01 in   Clear
12:55 PM 57.0 °F - 37.6 °F 48% 29.48 in 10.0 mi SW 33.4 mph 42.6 mph N/A   Clear
1:55 PM 55.9 °F - 34.2 °F 44% 29.49 in 10.0 mi SW 31.1 mph 41.4 mph N/A   Clear
2:55 PM 54.7 °F - 35.4 °F 48% 29.51 in 10.0 mi WSW 31.1 mph 40.3 mph N/A   Clear
3:55 PM 53.4 °F - 34.0 °F 48% 29.55 in 10.0 mi SW 28.8 mph 36.8 mph N/A   Clear
4:55 PM 52.2 °F - 31.8 °F 46% 29.59 in 10.0 mi WSW 25.3 mph 38.0 mph N/A   Clear
5:55 PM 49.1 °F - 31.3 °F 50% 29.64 in 10.0 mi West 21.9 mph 33.4 mph N/A   Scattered Clouds
6:55 PM 46.6 °F - 30.0 °F 53% 29.69 in 10.0 mi West 21.9 mph 31.1 mph N/A   Mostly Cloudy
7:55 PM 43.0 °F 35.1 °F 28.4 °F 56% 29.74 in 10.0 mi West 17.3 mph 28.8 mph N/A   Clear
8:55 PM 41.2 °F 30.7 °F 26.4 °F 56% 29.77 in 10.0 mi West 26.5 mph 35.7 mph N/A   Mostly Cloudy
9:55 PM 39.9 °F 28.8 °F 24.8 °F 55% 29.82 in 10.0 mi West 27.6 mph 35.7 mph N/A   Mostly Cloudy
10:55 PM 38.3 °F 28.4 °F 24.3 °F 57% 29.86 in 10.0 mi West 19.6 mph 28.8 mph N/A   Mostly Cloudy
11:55 PM 37.2 °F 27.9 °F 24.3 °F 60% 29.91 in 10.0 mi West 16.1 mph 27.6 mph N/A   Clear